College Park, MD

3:51 AM EST on February 19, 2018 (GMT -0500)
College Park

Weather History for KCGS - August, 2013

Change the Weather History Date:

Sunday, August 4, 2013

  Actual Average Record
Temperature  
Mean Temperature 72 °F -  
Max Temperature 82 °F 88 °F 99 °F (1980)
Min Temperature 62 °F 69 °F 55 °F (1966)
Cooling Degree Days 7    
Growing Degree Days 22 (Base 50)    
Moisture  
Dew Point 61 °F    
Average Humidity 70    
Maximum Humidity 100    
Minimum Humidity 38    
Precipitation  
Precipitation 0.00 in - - ()
Sea Level Pressure  
Sea Level Pressure 29.96 in    
Wind  
Wind Speed 3 mph (NW)    
Max Wind Speed 15 mph    
Max Gust Speed 25 mph    
Visibility 9 miles    
Events      
Averages and records for this station are not official NWS values.
T = Trace of Precipitation, MM = Missing Value Source: NWS Daily Summary

Daily Weather History Graph

Daily Weather History Graph

Search for Another Location

Airport or City:

Trip Planner

Search our weather history database for the weather conditions in past years. The results will help you decide how hot, cold, wet, or windy it might be!

Date:

Astronomy

Aug. 04, 2013 Rise Set
Actual Time 6:11 AM EDT 8:15 PM EDT
Civil Twilight 5:41 AM EDT 8:44 PM EDT
Nautical Twilight 5:05 AM EDT 9:20 PM EDT
Astronomical Twilight 4:26 AM EDT 9:59 PM EDT
Moon 4:10 AM EDT (8/4) 6:37 PM EDT (8/4)
Length of Visible Light 15h 03m
Length of Day
14h 04m
Waning Crescent, 5% of the Moon is Illuminated
Aug 4
Waning Crescent
Aug 6
New
Aug 14
First Quarter
Aug 20
Full
Aug 28
Last Quarter

Hourly Weather History & Observations

Time (EDT) Temp. Heat Index Dew Point Humidity Pressure Visibility Wind Dir Wind Speed Gust Speed Precip Events Conditions
12:15 AM 69.3 °F - 68.9 °F 99% 29.93 in 7.0 mi Calm Calm - N/A   Clear
12:35 AM 68.0 °F - 68.0 °F 100% 29.93 in 3.0 mi Calm Calm - N/A   Clear
12:55 AM 67.8 °F - 67.8 °F 100% 29.93 in 2.5 mi Calm Calm - N/A   Clear
1:15 AM 67.1 °F - 67.1 °F 100% 29.92 in 3.0 mi Calm Calm - N/A   Clear
1:35 AM 67.1 °F - 67.1 °F 100% 29.92 in 4.0 mi Calm Calm - N/A   Clear
1:55 AM 66.7 °F - 66.7 °F 100% 29.92 in 4.0 mi Calm Calm - N/A   Clear
2:15 AM 66.6 °F - 66.6 °F 100% 29.91 in 3.0 mi Calm Calm - N/A   Clear
2:35 AM 66.4 °F - 66.4 °F 100% 29.91 in 1.8 mi Calm Calm - N/A   Unknown
2:55 AM 66.9 °F - 66.9 °F 100% 29.91 in 7.0 mi Calm Calm - N/A   Mostly Cloudy
3:15 AM 67.1 °F - 67.1 °F 100% 29.91 in 7.0 mi Calm Calm - N/A   Mostly Cloudy
3:35 AM 67.6 °F - 67.6 °F 100% 29.91 in 7.0 mi Calm Calm - N/A   Mostly Cloudy
3:55 AM 67.1 °F - 67.1 °F 100% 29.91 in 5.0 mi Calm Calm - N/A   Mostly Cloudy
4:05 AM 67.3 °F - 67.3 °F 100% 29.91 in 7.0 mi Calm Calm - N/A   Scattered Clouds
4:35 AM 66.2 °F - 66.2 °F 100% 29.91 in 4.0 mi Calm Calm - N/A   Clear
4:55 AM 66.4 °F - 66.4 °F 100% 29.92 in 7.0 mi Calm Calm - N/A   Clear
5:15 AM 65.5 °F - 65.5 °F 100% 29.92 in 5.0 mi Calm Calm - N/A   Clear
5:35 AM 65.3 °F - 65.3 °F 100% 29.93 in 5.0 mi Calm Calm - N/A   Clear
5:55 AM 64.8 °F - 64.8 °F 100% 29.93 in 7.0 mi Calm Calm - N/A   Clear
6:15 AM 64.8 °F - 64.8 °F 100% 29.93 in 7.0 mi NNW 3.5 mph - N/A   Clear
6:35 AM 64.4 °F - 64.4 °F 100% 29.94 in 10.0 mi Calm Calm - N/A   Scattered Clouds
6:55 AM 64.6 °F - 64.6 °F 100% 29.95 in 10.0 mi Calm Calm - N/A   Scattered Clouds
7:15 AM 66.2 °F - 63.1 °F 90% 29.95 in 10.0 mi Calm Calm - N/A   Clear
7:35 AM 67.5 °F - 62.6 °F 84% 29.96 in 10.0 mi NNW 4.6 mph - N/A   Clear
7:55 AM 68.9 °F - 62.6 °F 80% 29.95 in 10.0 mi NNW 4.6 mph - N/A   Clear
8:15 AM 69.8 °F - 61.9 °F 76% 29.96 in 10.0 mi NNW 4.6 mph - N/A   Clear
8:35 AM 70.9 °F - 61.9 °F 73% 29.96 in 10.0 mi NNW 5.8 mph - N/A   Clear
8:55 AM 71.8 °F - 61.5 °F 70% 29.96 in 10.0 mi NNW 8.1 mph - N/A   Clear
9:15 AM 72.9 °F - 61.2 °F 67% 29.97 in 10.0 mi NNW 9.2 mph - N/A   Clear
9:35 AM 73.9 °F - 60.8 °F 63% 29.97 in 10.0 mi NNW 6.9 mph - N/A   Clear
9:55 AM 75.2 °F - 61.2 °F 62% 29.97 in 10.0 mi NNW 8.1 mph - N/A   Clear
10:15 AM 76.3 °F - 58.6 °F 54% 29.97 in 10.0 mi North 9.2 mph - N/A   Clear
10:35 AM 77.0 °F - 58.1 °F 52% 29.97 in 10.0 mi NW 8.1 mph - N/A   Clear
10:55 AM 77.0 °F - 58.6 °F 53% 29.98 in 10.0 mi North 11.5 mph 16.1 mph N/A   Clear
11:15 AM 77.4 °F - 59.5 °F 54% 29.98 in 10.0 mi NNW 6.9 mph 16.1 mph N/A   Clear
11:35 AM 77.9 °F - 58.3 °F 51% 29.98 in 10.0 mi North 10.4 mph - N/A   Clear
11:55 AM 78.4 °F - 57.9 °F 49% 29.98 in 10.0 mi NNW 6.9 mph 16.1 mph N/A   Clear
12:15 PM 78.6 °F - 58.1 °F 49% 29.97 in 10.0 mi NW 8.1 mph - N/A   Clear
12:35 PM 79.3 °F - 58.1 °F 48% 29.97 in 10.0 mi NW 9.2 mph - N/A   Scattered Clouds
12:55 PM 79.3 °F - 57.9 °F 48% 29.97 in 10.0 mi NW 8.1 mph - N/A   Mostly Cloudy
1:15 PM 81.0 °F 81.3 °F 58.8 °F 47% 29.96 in 10.0 mi NW 8.1 mph 18.4 mph N/A   Mostly Cloudy
1:35 PM 80.1 °F 80.6 °F 58.1 °F 47% 29.96 in 10.0 mi WNW 8.1 mph 17.3 mph N/A   Mostly Cloudy
2:00 PM 81.0 °F 81.2 °F 58.1 °F 46% 29.96 in 10.0 mi NW 11.5 mph 17.3 mph N/A   Mostly Cloudy
2:20 PM 81.0 °F 81.1 °F 57.6 °F 45% 29.96 in 10.0 mi WNW 12.7 mph 19.6 mph N/A   Mostly Cloudy
2:40 PM 80.1 °F 80.7 °F 58.5 °F 48% 29.95 in 10.0 mi NW 8.1 mph - N/A   Scattered Clouds
3:00 PM 81.5 °F 81.6 °F 58.3 °F 45% 29.95 in 10.0 mi NNW 9.2 mph - N/A   Scattered Clouds
3:20 PM 81.9 °F 81.9 °F 58.6 °F 45% 29.95 in 10.0 mi WNW 13.8 mph 23.0 mph N/A   Scattered Clouds
3:40 PM 81.9 °F 81.6 °F 56.5 °F 42% 29.95 in 10.0 mi NW 12.7 mph 25.3 mph N/A   Mostly Cloudy
4:00 PM 81.9 °F 81.7 °F 57.6 °F 43% 29.94 in 10.0 mi NW 11.5 mph 20.7 mph N/A   Scattered Clouds
4:20 PM 82.4 °F 81.9 °F 56.7 °F 41% 29.95 in 10.0 mi NW 10.4 mph 17.3 mph N/A   Scattered Clouds
4:40 PM 81.9 °F 81.1 °F 54.1 °F 38% 29.95 in 10.0 mi WNW 13.8 mph 19.6 mph N/A   Clear
5:00 PM 82.4 °F 81.8 °F 55.8 °F 40% 29.95 in 10.0 mi WNW 15.0 mph - N/A   Scattered Clouds
5:20 PM 81.3 °F 81.0 °F 55.4 °F 41% 29.95 in 10.0 mi NNW 9.2 mph 19.6 mph N/A   Scattered Clouds
5:40 PM 81.5 °F 81.0 °F 54.7 °F 40% 29.95 in 10.0 mi NNW 10.4 mph - N/A   Clear
6:00 PM 80.8 °F 80.7 °F 55.4 °F 42% 29.96 in 10.0 mi North 10.4 mph 16.1 mph N/A   Clear
6:20 PM 80.6 °F 80.4 °F 54.5 °F 40% 29.96 in 10.0 mi NNW 10.4 mph 19.6 mph N/A   Clear
6:35 PM 80.1 °F 80.1 °F 54.1 °F 41% 29.96 in 10.0 mi North 13.8 mph - N/A   Clear
7:00 PM 79.2 °F - 53.4 °F 41% 29.97 in 10.0 mi NNW 9.2 mph 16.1 mph N/A   Clear
7:20 PM 78.4 °F - 53.4 °F 42% 29.98 in 10.0 mi NNW 9.2 mph - N/A   Clear
7:40 PM 77.4 °F - 53.6 °F 44% 29.98 in 10.0 mi NW 5.8 mph - N/A   Clear
8:00 PM 77.2 °F - 53.6 °F 44% 29.99 in 10.0 mi West 3.5 mph - N/A   Clear
8:20 PM 75.0 °F - 54.7 °F 49% 29.99 in 10.0 mi North 3.5 mph - N/A   Clear
8:40 PM 69.3 °F - 60.1 °F 72% 29.99 in 10.0 mi Calm Calm - N/A   Clear
9:00 PM 68.9 °F - 58.5 °F 69% 30.00 in 10.0 mi Calm Calm - N/A   Clear
9:20 PM 67.5 °F - 59.7 °F 76% 30.01 in 10.0 mi Calm Calm - N/A   Clear
9:40 PM 66.0 °F - 59.7 °F 80% 30.01 in 10.0 mi Calm Calm - N/A   Clear
9:55 PM 65.3 °F - 59.7 °F 82% 30.01 in 7.0 mi Calm Calm - N/A   Clear
10:20 PM 64.4 °F - 60.1 °F 86% 30.02 in 10.0 mi Calm Calm - N/A   Clear
10:40 PM 63.5 °F - 59.4 °F 86% 30.02 in 10.0 mi Calm Calm - N/A   Clear
11:00 PM 63.5 °F - 59.9 °F 88% 30.02 in 10.0 mi Calm Calm - N/A   Clear
11:20 PM 62.8 °F - 60.1 °F 91% 30.02 in 10.0 mi Calm Calm - N/A   Clear
11:40 PM 62.6 °F - 59.9 °F 91% 30.03 in 10.0 mi Calm Calm - N/A   Clear